Location: B�rgermoos
(47.6500°N, 9.0667°E)
Time: 18:29:04
(UTC+00:00)

Tiros 1 - Pass Details

Date: 05 August 2021
Orbit: 630 x 663 km, 48.4° (Epoch: 20 September)

Event Time Altitude Azimuth Distance (km) Brightness Sun altitude
Rises 16:22:46 0° 236° (SW) 2,985 11.5 23.5°
Reaches altitude 10° 16:25:09 10° 232° (SW) 2,072 10.7 23.1°
Maximum altitude 16:29:49 55° 155° (SSE) 792 7.8 22.3°
Drops below altitude 10° 16:34:29 10° 78° (ENE) 2,064 9.2 21.5°
Sets 16:36:51 0° 74° (ENE) 2,972 10.0 21.1°
